Showing default

FLOCK 4G 29, 62642

Orbit data source: Space-Track

FLOCK 4G 29, 62642 is a payload satellite in SSO that was launched on Tue, 14 Jan 2025 UTC via an FALCON 9 launch vehicle from the Air Force Western Test Range (AFWTR). Payload-class satellites include a variety of spacecraft equipped with specific instruments for various scientific and technological missions. These include communications satellites like Starlink; space stations such as the ISS; scientific satellites like the Hubble; Earth observation satellites from companies like Planet Labs, Umbra, and HawkEye 360; GPS; miniature CubeSats for education and research; and military/defense satellites.

Loading next visibility...
Identifier
62642, 2025-009AK
Orbit
SSO
Last TLE update
1 day ago
Origin
Manufacturer
Planet
Mission
Operational Commercial Imaging
Bus & Motor
CUBESAT 3U, Unknown motor
Mass
5.7 kg wet, 5.7 kg dry
Launch date (UTC)
2025-01-14 (4 months ago)
Launch vehicle
FALCON 9
Launch site
Air Force Western Test Range (AFWTR)
Object type
Payload
Rocket body
Debris
Shape & HBR
Box + 2 Pan, 0.3 m
Radar Cross Section
0.035 m², Medium (>0.1 m² and < 1m²)

Expand to show TLE details & history

TLE from 1 day ago
0 FLOCK 4G 29
1 62642U 25009AK  25139.47870154  .00007805  00000-0  36047-3 0  9995
2 62642  97.4321 220.2410 0002519 206.2655 153.8453 15.20467914 18919
Epoch: 2025-05-19T11:29Z
TLE epoch observation values (Epoch: 2025-05-19T11:29:19.813Z)
Latitude
0.00001°
Longitude
170.51771°
Altitude
509.075 km
Speed
7.609 km/s
True Right ascension
14h 40m 57s
True Declination
0° 00' 00"
Sunlit
Object was in full shadow at epoch
Visualization orbit readout
Latitude
-82.44967°
Longitude
-110.09507°
Altitude
532.146 km
Speed
7.596 km/s
Apparent Right ascension
14h 42m 36s
Apparent Declination
-65° 23' 55"
Sunlit
Object is in full shadow
Visualization observer readout
Local Sidereal Time
02:00:33
Azimuth
189.913° SSW
Elevation
-63.813°
Doppler factor
1
Orbital elements
Apogee altitude
503.127 km
Perigee altitude
499.662 km
Semi-major axis
6,879.532 km
Eccentricity
0.00025
Inclination
97.4321°
RAAN
220.241°
Arg. of periapsis
206.2655°
True anomaly
Unknown
Mean anomaly
153.8453°
Eccentric anomaly
Unknown
Mean motion
3.80369 °/min
Orbital period
94.64 mins
BSTAR
0.00036047
Loading maneuver chart data...
Loading SW <> Apogee altitude chart data...
Loading historical data...
Loading historical data...
Loading historical data...
Loading historical data...
Loading historical data...
Loading historical data...
Loading historical data...

FLOCK 4G 29 Visibility forecast

Observer location: undefined°, undefined°

Span
Click to sort rows by Start time (UTC) header in descending order
Start Az.
Max El. time (UTC)
Max El. Az.
Max El.
End time (UTC)
End Az.
6 mins2025-05-20 18:03:35.791Z19.226° NNE2025-05-20 18:06:35.791Z82.28° E41.972°2025-05-20 18:09:35.791Z181.445° SSW
4 mins2025-05-21 04:42:35.791Z112.73° SE2025-05-21 04:44:35.791Z66.773° ENE22.812°2025-05-21 04:46:35.791Z24.54° NE
4 mins2025-05-21 06:16:35.791Z232.336° WSW2025-05-21 06:18:35.791Z273.274° WNW17.929°2025-05-21 06:20:35.791Z308.613° NW
|